Volver al catálogo

COSMOS 2251 DEB

ActivoLEO
NORAD 36558·DEBRIS·🇷🇺 Russia

Lanzado Jun 16, 1993 desde Plesetsk Cosmodrome

Loading…

Próximos Pases (próximas 24 horas)

TLE

EnvejeciendoSource: Space-Track

Época: Sep 11, 2026, 16:58 UTC

1 36558U 93036BDU 26254.70729863  .00001609  00000-0  36430-3 0  9994
2 36558  74.0437 356.9500 0012884  10.7071 349.4365 14.56950995892423

Sigue COSMOS 2251 DEB en tiempo real con AllMySat

Download on the App Store